Regional Weather Roundup
Issued by NWS Upton, NY

Current Version | Previous Version | Graphics & Text | Print | Product List | Glossary Off
Versions: 1 2 3 4 5 6 7 8 9 10 11 12 13 14 15 16 17 18 19 20 21 22 23 24 25 26 27 28 29 30 31 32 33 34 35 36 37 38 39 40 41 42 43 44 45 46 47 48 49 50

000
ASUS41 KOKX 290505
RWROKX

REGIONAL WEATHER ROUNDUP
NATIONAL WEATHER SERVICE NEW YORK NY
1200 AM EST THU JAN 29 2015

NOTE: "FAIR" INDICATES FEW OR NO CLOUDS BELOW 12,000 FEET WITH NO
SIGNIFICANT WEATHER AND/OR OBSTRUCTIONS TO VISIBILITY.

NYZ071-072-176-178-NJZ106-104-290600-
NEW YORK CITY METRO AREA


CITY           SKY/WX    TMP DP  RH WIND       PRES   REMARKS
CENTRAL PARK   CLEAR     25   1  35 CALM      30.29R
LAGUARDIA APRT CLEAR     25   7  46 N9        30.27S WCI  15
KENNEDY INTL   FAIR      23   6  48 N7        30.28R WCI  15
NEWARK/LIBERTY CLEAR     23   3  42 NW8       30.29R WCI  14
BRNX BOT. GARD   N/A    N/A N/A N/A N5        30.30R
TETERBORO      CLEAR     22   0  38 NW6       30.28R WCI  14
$$

NYZ177-179-078>081-290600-
LONG ISLAND NEW YORK

CITY           SKY/WX    TMP DP  RH WIND       PRES   REMARKS
FARMINGDALE    CLEAR     23   1  38 NW7       30.26S WCI  15
ISLIP          CLEAR     22   5  48 N8        30.23S WCI  12
SHIRLEY        CLEAR     20   5  52 N6        30.26  WCI  12
WESTHAMPTON    CLEAR     19   5  54 N8        30.25R WCI   9
MONTAUK POINT    N/A     25   5  42 N10       30.25R WCI  15
$$

NYZ052-065-067-290600-
HUDSON VALLEY

CITY           SKY/WX    TMP DP  RH WIND       PRES   REMARKS
WHITE PLAINS   CLEAR     18  -1  43 NW12      30.23R WCI   5
NEWBURGH       CLEAR     10   1  67 CALM      30.28R
MONTGOMERY     PTCLDY     3  -2  79 NW3       30.28R
POUGHKEEPSIE   PTCLDY     5  -1  76 CALM      30.30R
ALBANY         MOCLDY     3  -5  69 NW3       30.33R
$$

NJZ001-105-106-008-010-013-015-019>022-104-290600-
NEW JERSEY

CITY           SKY/WX    TMP DP  RH WIND       PRES   REMARKS
NEWARK/LIBERTY CLEAR     23   3  42 NW8       30.29R WCI  14
TETERBORO      CLEAR     22   0  38 NW6       30.28R WCI  14
CALDWELL       CLEAR     16   4  59 CALM      30.29R
MORRISTOWN     CLEAR     16   3  57 CALM      30.29R
SOMERVILLE     CLEAR     22   1  40 CALM      30.28R
SUSSEX         CLEAR     13   1  59 CALM      30.27R
ANDOVER          N/A      7   0  73 CALM      30.27S
TRENTON        CLEAR     23   1  38 NW7       30.28S WCI  15
MILLVILLE      CLEAR     24   6  46 NW6       30.29S WCI  17
ATLANTIC CITY  CLEAR     22   5  48 N9        30.29R WCI  12
WRIGHTSTOWN    CLEAR     20   3  48 NW5       30.26S WCI  13
TOMS RIVER     CLEAR     18   7  62 NW6       30.29R WCI   9
BELMAR         CLEAR     19   1  45 NW7       30.26S WCI  10
$$

PAZ047>061-062-071-290600-
EASTERN PENNSYLVANIA

CITY           SKY/WX    TMP DP  RH WIND       PRES   REMARKS
PHILADELPHIA   CLEAR     28   2  32 VRB6      30.31S WCI  22
ALLENTOWN      PTCLDY    21   1  41 W5        30.30R WCI  15
SCRANTON       CLEAR     13   4  67 SE3       30.28S
$$

CTZ002-004>006-009-010-012-RIZ004-006-007-MAZ004-011-015-290600-
SOUTHERN NEW ENGLAND
 IN CT

CITY           SKY/WX    TMP DP  RH WIND       PRES   REMARKS
BRADLEY INTL   CLEAR     13  -1  54 N7        30.25R WCI   3
HARTFORD       CLEAR     16   3  56 N6        30.27R WCI   7
DANBURY        CLEAR     13  -3  49 CALM      30.25S
WTRBRY/OXFORD  CLEAR     12  -6  44 N6        30.21S WCI   3
BRIDGEPORT     CLEAR     20   1  43 N3        30.26R
MERIDEN        CLEAR     17   1  49 N3        30.26R
NEW HAVEN      CLEAR     16   2  54 N6        30.25R WCI   7
CHESTER        FAIR      19   3  49 N7        30.23R WCI  10
GROTON         CLEAR     18   1  47 N9        30.24R WCI   7
WILLIMANTIC    CLEAR      5  -1  76 CALM      30.24R

 IN RI

CITY           SKY/WX    TMP DP  RH WIND       PRES   REMARKS
PROVIDENCE     CLEAR     18   1  47 N6        30.24R WCI  10
BLOCK ISLAND   CLEAR     23   5  46 N9        30.20S WCI  13
WESTERLY       CLEAR     16  -1  47 N5        30.24R WCI   9

 IN MA

CITY           SKY/WX    TMP DP  RH WIND       PRES   REMARKS
BOSTON         CLEAR     17   0  47 NW12      30.24R WCI   4
WORCESTER      CLEAR     14  -6  40 NW8       30.16R WCI   3
WESTFIELD      CLEAR      7  -1  70 CALM      30.26R
PROVINCETOWN   CLOUDY    28  18  64 N13       30.19R WCI  18
NANTUCKET      CLOUDY    27  19  72 NW14      30.17S WCI  16
$$

ANZ330-335-338-340-345-350-353-355-290600-
COASTAL MARINE OBSERVATIONS


STATION/POSITION TIME  SKY/WX   TEMP    WIND        PRES    VSBY  WAVE
                                AIR SEA DIR/SP/G                  HT/PER
                 (UTC)          (F)     (DEG/KT/KT) (MB)    (MI)  (FT/S)
NY HARB ENTRANCE 0500            30 40  350/ 14/ 16 1024.4          3/ 4
4S FIRE IS       0500               37                N/A           2/12
20S FIRE ISLAND  0400               42              1024.1          5/ 5
23SW MTP         0500                                 N/A           4/ 4
HUDSON CANYON    NOT AVBL
EXECUTION ROCKS  0500            25 33  330/  8/ 12   N/A
WESTERN LI SOUND 0500            26     330/  4/ 12   N/A           0
CENTRAL LI SOUND 0400            25 35  360/ 14/ 17   N/A           2/ 3
EASTERN LI SOUND NOT AVBL
ROBBINS REEF     0500            26     330/ 10/ 12 1024.1
$$


>>>>>>>>>>>>>>>>>>>>>>>>>>>> KEY <<<<<<<<<<<<<<<<<<<<<<<<<<<
>                                                          <
>     SKY/WX - SKY CONDITION/PRESENT WEATHER               <
>     TMP    - TEMPERATURE IN FAHRENHEIT                   <
>     DP     - DEWPOINT IN FAHRENHEIT                      <
>     RH     - RELATIVE HUMIDITY IN PERCENT                <
>     WIND   - DIRECTION AND SPEED IN MPH                  <
>     PRES   - MEAN SEA LEVEL PRESSURE IN INCHES OF HG     <
>     WCI    - WIND CHILL INDEX                            <
>     VSB    - VISIBILITY IN MILES                         <
>     HX     - HEAT INDEX                                  <
>     TC     - TEMPERATURE IN CELSIUS                      <
>     VRB    - VARIABLE WIND DIRECTION                     <
>                                                          <
>>>>>>>>>>>>>>>>>>>>>>>>>>>> KEY <<<<<<<<<<<<<<<<<<<<<<<<<<<





USA.gov is the U.S. government's official web portal to all federal, state and local government web resources and services.